• In Russia
  • List of Countries
  • For 7 days
  • Water Temperature
  • Satellite Maps
  • Weather Map
  • Weather Widgets
  • user-avatar
    Login

    Hourly Weather Feldkirchen in Karnten

    Today, 24 February, Sunday

    Time Temperature Precipitation Wind Pressure Humidity
    00:00 -1°C° 0 mm 1 mps 726 mmHg 51%
    01:00 -1°C° 0 mm 1 mps 726 mmHg 50%
    02:00 -1°C° 0 mm 1 mps 725 mmHg 48%
    03:00 -1°C° 0 mm 1 mps 725 mmHg 47%
    04:00 -1°C° 0 mm 1 mps 725 mmHg 46%
    05:00 -1°C° 0 mm 1 mps 725 mmHg 45%
    06:00 -1°C° 0 mm 1 mps 725 mmHg 44%
    07:00 -1°C° 0 mm 1 mps 725 mmHg 44%
    08:00 +2°C° 0 mm 1 mps 725 mmHg 40%
    09:00 +4°C° 0 mm 1 mps 725 mmHg 37%
    10:00 +6°C° 0 mm 1 mps 725 mmHg 33%
    11:00 +8°C° 0 mm 1 mps 725 mmHg 35%
    12:00 +9°C° 0 mm 1 mps 725 mmHg 37%
    13:00 +11°C° 0 mm 1 mps 725 mmHg 39%
    14:00 +10°C° 0 mm 1 mps 725 mmHg 43%
    15:00 +10°C° 0 mm 1 mps 724 mmHg 48%
    16:00 +10°C° 0 mm 1 mps 724 mmHg 52%
    17:00 +8°C° 0 mm 1 mps 724 mmHg 57%
    18:00 +6°C° 0 mm 1 mps 724 mmHg 61%
    19:00 +4°C° 0 mm 1 mps 725 mmHg 66%
    20:00 +4°C° 0 mm 1 mps 725 mmHg 68%
    21:00 +4°C° 0 mm 1 mps 725 mmHg 69%
    22:00 +3°C° 0 mm 1 mps 725 mmHg 71%
    23:00 +3°C° 0 mm 1 mps 725 mmHg 73%

    Tomorrow, 25 February, Monday

    Time Temperature Precipitation Wind Pressure Humidity
    00:00 +3°C° 0 mm 1 mps 725 mmHg 74%
    01:00 +3°C° 0 mm 1 mps 725 mmHg 76%
    02:00 +3°C° 0 mm 1 mps 725 mmHg 77%
    03:00 +3°C° 0 mm 1 mps 725 mmHg 79%
    04:00 +3°C° 0 mm 1 mps 724 mmHg 80%
    05:00 +3°C° 0 mm 1 mps 724 mmHg 80%
    06:00 +3°C° 0 mm 1 mps 724 mmHg 80%
    07:00 +3°C° 0 mm 1 mps 724 mmHg 81%
    08:00 +6°C° 0 mm 1 mps 724 mmHg 76%
    09:00 +8°C° 0 mm 1 mps 725 mmHg 71%
    10:00 +10°C° 0 mm 1 mps 725 mmHg 66%
    11:00 +10°C° 0 mm 2 mps 725 mmHg 63%
    12:00 +12°C° 0 mm 2 mps 725 mmHg 61%
    13:00 +14°C° 0 mm 2 mps 725 mmHg 58%
    14:00 +13°C° 0 mm 2 mps 725 mmHg 61%
    15:00 +13°C° 0 mm 2 mps 724 mmHg 63%
    16:00 +12°C° 0 mm 1 mps 724 mmHg 66%
    17:00 +11°C° 0 mm 1 mps 724 mmHg 72%
    18:00 +9°C° 0 mm 1 mps 724 mmHg 78%
    19:00 +7°C° 0 mm 1 mps 724 mmHg 84%
    20:00 +7°C° 0 mm 1 mps 724 mmHg 84%
    21:00 +6°C° 0 mm 1 mps 724 mmHg 83%
    22:00 +6°C° 0 mm 1 mps 724 mmHg 83%
    23:00 +5°C° 0 mm 1 mps 724 mmHg 82%

    Day after tomorrow, 26 February, Tuesday

    Time Temperature Precipitation Wind Pressure Humidity
    00:00 +5°C° 0 mm 1 mps 724 mmHg 80%
    01:00 +5°C° 0 mm 1 mps 724 mmHg 79%
    02:00 +5°C° 0 mm 1 mps 724 mmHg 78%
    03:00 +5°C° 0 mm 1 mps 723 mmHg 77%
    04:00 +4°C° 0 mm 1 mps 723 mmHg 76%
    05:00 +4°C° 0 mm 1 mps 723 mmHg 74%
    06:00 +4°C° 0 mm 1 mps 723 mmHg 72%
    07:00 +4°C° 0 mm 1 mps 723 mmHg 69%
    08:00 +6°C° 0 mm 1 mps 723 mmHg 63%
    09:00 +9°C° 0 mm 1 mps 723 mmHg 57%
    10:00 +11°C° 0 mm 1 mps 723 mmHg 51%
    11:00 +13°C° 0 mm 1 mps 723 mmHg 46%
    12:00 +14°C° 0 mm 1 mps 722 mmHg 42%
    13:00 +16°C° 0 mm 1 mps 722 mmHg 38%
    14:00 +15°C° 0 mm 1 mps 722 mmHg 41%
    15:00 +15°C° 0 mm 1 mps 722 mmHg 44%
    16:00 +14°C° 0 mm 1 mps 721 mmHg 47%
    17:00 +12°C° 0 mm 2 mps 721 mmHg 53%
    18:00 +9°C° 0 mm 2 mps 721 mmHg 59%
    19:00 +7°C° 0 mm 2 mps 721 mmHg 65%
    20:00 +7°C° 0 mm 2 mps 721 mmHg 64%
    21:00 +6°C° 0 mm 2 mps 721 mmHg 64%
    22:00 +6°C° 0 mm 2 mps 721 mmHg 64%
    23:00 +5°C° 0 mm 2 mps 721 mmHg 63%

    27 February, Wednesday

    Time Temperature Precipitation Wind Pressure Humidity
    00:00 +5°C° 0 mm 2 mps 721 mmHg 63%
    01:00 +5°C° 0 mm 2 mps 721 mmHg 62%
    02:00 +5°C° 0 mm 2 mps 721 mmHg 62%
    03:00 +5°C° 0 mm 2 mps 721 mmHg 62%
    04:00 +6°C° 0 mm 1 mps 721 mmHg 63%
    05:00 +5°C° 0 mm 1 mps 721 mmHg 63%
    06:00 +5°C° 0 mm 1 mps 721 mmHg 64%
    07:00 +5°C° 0 mm 1 mps 721 mmHg 64%
    08:00 +8°C° 0 mm 1 mps 721 mmHg 60%
    09:00 +10°C° 0 mm 1 mps 721 mmHg 55%
    10:00 +13°C° 0 mm 1 mps 721 mmHg 51%
    11:00 +14°C° 0 mm 1 mps 721 mmHg 48%
    12:00 +15°C° 0 mm 0 mps 721 mmHg 46%
    13:00 +17°C° 0 mm 0 mps 721 mmHg 43%
    14:00 +16°C° 0 mm 0 mps 721 mmHg 45%
    15:00 +16°C° 0 mm 0 mps 720 mmHg 48%
    16:00 +16°C° 0 mm 0 mps 720 mmHg 50%
    17:00 +13°C° 0 mm 0 mps 719 mmHg 56%
    18:00 +12°C° 0 mm 1 mps 719 mmHg 62%
    19:00 +10°C° 0 mm 1 mps 719 mmHg 68%
    20:00 +10°C° 0 mm 1 mps 719 mmHg 68%
    21:00 +9°C° 0 mm 1 mps 719 mmHg 69%
    22:00 +9°C° 0 mm 1 mps 719 mmHg 70%
    23:00 +8°C° 0 mm 1 mps 719 mmHg 69%

    28 February, Thursday

    Time Temperature Precipitation Wind Pressure Humidity
    00:00 +8°C° 0 mm 1 mps 718 mmHg 68%
    01:00 +8°C° 0 mm 1 mps 718 mmHg 68%
    02:00 +8°C° 0 mm 1 mps 718 mmHg 67%
    03:00 +7°C° 0 mm 1 mps 717 mmHg 67%
    04:00 +7°C° 0 mm 1 mps 717 mmHg 66%
    05:00 +7°C° 0 mm 1 mps 717 mmHg 66%
    06:00 +7°C° 0 mm 1 mps 716 mmHg 67%
    07:00 +7°C° 0 mm 1 mps 716 mmHg 67%
    08:00 +9°C° 0 mm 1 mps 716 mmHg 61%
    09:00 +12°C° 0 mm 1 mps 716 mmHg 56%
    10:00 +14°C° 0 mm 1 mps 716 mmHg 50%
    11:00 +16°C° 0 mm 1 mps 716 mmHg 46%
    12:00 +18°C° 0 mm 1 mps 716 mmHg 41%
    13:00 +19°C° 0 mm 1 mps 716 mmHg 36%
    14:00 +19°C° 0 mm 1 mps 715 mmHg 37%
    15:00 +18°C° 0 mm 1 mps 715 mmHg 39%
    16:00 +18°C° 0 mm 1 mps 714 mmHg 40%
    17:00 +14°C° 0 mm 1 mps 714 mmHg 47%
    18:00 +12°C° 0 mm 1 mps 714 mmHg 55%
    19:00 +10°C° 0 mm 1 mps 714 mmHg 62%
    20:00 +9°C° 0 mm 1 mps 715 mmHg 65%
    21:00 +9°C° 0 mm 1 mps 715 mmHg 68%
    22:00 +8°C° 0 mm 1 mps 715 mmHg 70%
    23:00 +8°C° 0 mm 1 mps 715 mmHg 73%

    1 March, Friday

    Time Temperature Precipitation Wind Pressure Humidity
    00:00 +7°C° 0 mm 1 mps 715 mmHg 76%
    01:00 +7°C° 0 mm 1 mps 715 mmHg 78%
    02:00 +6°C° 0 mm 1 mps 715 mmHg 80%
    03:00 +6°C° 0 mm 1 mps 715 mmHg 81%
    04:00 +5°C° 0 mm 2 mps 714 mmHg 83%
    05:00 +5°C° 0 mm 1 mps 714 mmHg 83%
    06:00 +5°C° 0 mm 1 mps 714 mmHg 83%
    07:00 +5°C° 0 mm 1 mps 714 mmHg 83%
    08:00 +7°C° 0 mm 1 mps 714 mmHg 74%
    09:00 +9°C° 0 mm 1 mps 714 mmHg 65%
    10:00 +11°C° 0 mm 1 mps 714 mmHg 56%
    11:00 +12°C° 0 mm 1 mps 714 mmHg 51%
    12:00 +14°C° 0 mm 1 mps 714 mmHg 46%
    13:00 +15°C° 0 mm 1 mps 714 mmHg 40%
    14:00 +15°C° 0 mm 1 mps 713 mmHg 41%
    15:00 +14°C° 0 mm 1 mps 713 mmHg 42%
    16:00 +14°C° 0 mm 1 mps 712 mmHg 43%
    17:00 +12°C° 0 mm 1 mps 712 mmHg 51%
    18:00 +10°C° 0 mm 1 mps 713 mmHg 58%
    19:00 +8°C° 0 mm 1 mps 713 mmHg 66%
    20:00 +7°C° 0 mm 1 mps 713 mmHg 69%
    21:00 +6°C° 0 mm 1 mps 713 mmHg 71%
    22:00 +6°C° 0 mm 1 mps 714 mmHg 74%
    23:00 +5°C° 0 mm 1 mps 714 mmHg 75%
    Show more